contact:dominique.lefevre@mio.osupytheas.fr, maurice.libes@osupytheas.fr, didier.mallarino@osupytheas.fr
Project:EMSO http://www.emso-fr.org/EMSO-France
Depth: 2436.0 m
Title:EMSO Ligure Ouest : Data MII capteur CSTAR
DateTime,Latitude,Longitude,Instrument_Serial,Reference_Counts,Signal_Counts,Corrected_Signal_raw_counts,Calculated_Beam_c_inverse_meters,Internal_thermistor_counts
DateTime,Latitude,Longitude,Instrument_Serial,Reference_Counts,Signal_Counts,Corrected_Signal_raw_counts,Calculated_Beam_c_inverse_meters,Internal_thermistor_counts
2020-08-14T00:01:25,42.805,6.029,CST-1368DR,5970,8360,15104,0.133,551
2020-08-14T00:04:27,42.805,6.029,CST-1368DR,5970,8361,15106,0.133,551
2020-08-14T00:07:28,42.805,6.029,CST-1368DR,5970,8362,15107,0.133,551
2020-08-14T00:10:30,42.805,6.029,CST-1368DR,5970,8361,15107,0.133,551
2020-08-14T00:13:32,42.805,6.029,CST-1368DR,5970,8360,15105,0.133,551
2020-08-14T00:16:33,42.805,6.029,CST-1368DR,5970,8360,15105,0.133,551
2020-08-14T00:19:35,42.805,6.029,CST-1368DR,5970,8361,15106,0.133,551
2020-08-14T00:22:37,42.805,6.029,CST-1368DR,5970,8361,15106,0.133,551
2020-08-14T00:25:38,42.805,6.029,CST-1368DR,5970,8361,15105,0.133,551
2020-08-14T00:28:40,42.805,6.029,CST-1368DR,5970,8361,15106,0.133,551
2020-08-14T00:31:42,42.805,6.029,CST-1368DR,5970,8361,15106,0.133,551
2020-08-14T00:34:43,42.805,6.029,CST-1368DR,5970,8361,15107,0.133,551
2020-08-14T00:37:45,42.805,6.029,CST-1368DR,5970,8360,15104,0.133,551
2020-08-14T00:40:47,42.805,6.029,CST-1368DR,5970,8361,15105,0.133,551
2020-08-14T00:43:48,42.805,6.029,CST-1368DR,5970,8361,15106,0.133,550
2020-08-14T00:46:50,42.805,6.029,CST-1368DR,5970,8361,15107,0.133,551
2020-08-14T00:49:52,42.805,6.029,CST-1368DR,5970,8361,15106,0.133,551
2020-08-14T00:52:53,42.805,6.029,CST-1368DR,5970,8361,15105,0.133,551
2020-08-14T00:55:55,42.805,6.029,CST-1368DR,5970,8361,15106,0.133,551
2020-08-14T00:58:57,42.805,6.029,CST-1368DR,5970,8361,15106,0.133,551
2020-08-14T01:01:58,42.805,6.029,CST-1368DR,5970,8361,15106,0.133,551
2020-08-14T01:05:00,42.805,6.029,CST-1368DR,5970,8359,15103,0.134,551
2020-08-14T01:08:02,42.805,6.029,CST-1368DR,5970,8361,15106,0.133,551
2020-08-14T01:11:04,42.805,6.029,CST-1368DR,5970,8360,15103,0.134,551
2020-08-14T01:14:05,42.805,6.029,CST-1368DR,5970,8361,15105,0.133,551
2020-08-14T01:17:07,42.805,6.029,CST-1368DR,5970,8361,15106,0.133,551
2020-08-14T01:20:09,42.805,6.029,CST-1368DR,5970,8361,15107,0.133,551
2020-08-14T01:23:10,42.805,6.029,CST-1368DR,5970,8361,15106,0.133,551
2020-08-14T01:26:12,42.805,6.029,CST-1368DR,5970,8362,15107,0.133,551
2020-08-14T01:29:14,42.805,6.029,CST-1368DR,5970,8361,15106,0.133,551
2020-08-14T01:32:15,42.805,6.029,CST-1368DR,5970,8361,15107,0.133,551
2020-08-14T01:35:17,42.805,6.029,CST-1368DR,5970,8361,15106,0.133,551
2020-08-14T01:38:19,42.805,6.029,CST-1368DR,5970,8361,15106,0.133,551
2020-08-14T01:41:20,42.805,6.029,CST-1368DR,5970,8360,15105,0.133,551
2020-08-14T01:44:22,42.805,6.029,CST-1368DR,5970,8360,15105,0.133,551
2020-08-14T01:47:24,42.805,6.029,CST-1368DR,5970,8360,15104,0.133,551
2020-08-14T01:50:26,42.805,6.029,CST-1368DR,5970,8361,15106,0.133,551
2020-08-14T01:53:27,42.805,6.029,CST-1368DR,5970,8360,15105,0.133,551
2020-08-14T01:56:29,42.805,6.029,CST-1368DR,5970,8361,15105,0.133,551
2020-08-14T01:59:31,42.805,6.029,CST-1368DR,5970,8361,15106,0.133,551
2020-08-14T02:02:32,42.805,6.029,CST-1368DR,5970,8360,15104,0.133,551
2020-08-14T02:05:34,42.805,6.029,CST-1368DR,5970,8359,15103,0.134,551
2020-08-14T02:08:36,42.805,6.029,CST-1368DR,5970,8360,15104,0.133,551
2020-08-14T02:11:38,42.805,6.029,CST-1368DR,5969,8361,15108,0.132,551
2020-08-14T02:14:39,42.805,6.029,CST-1368DR,5969,8359,15104,0.133,551
2020-08-14T02:17:41,42.805,6.029,CST-1368DR,5970,8361,15106,0.133,551
2020-08-14T02:20:43,42.805,6.029,CST-1368DR,5970,8360,15103,0.134,551
2020-08-14T02:23:44,42.805,6.029,CST-1368DR,5970,8361,15105,0.133,551
2020-08-14T02:26:46,42.805,6.029,CST-1368DR,5969,8361,15108,0.132,551
2020-08-14T02:29:48,42.805,6.029,CST-1368DR,5970,8360,15104,0.133,551
2020-08-14T02:32:49,42.805,6.029,CST-1368DR,5970,8360,15105,0.133,551
2020-08-14T02:35:51,42.805,6.029,CST-1368DR,5970,8360,15105,0.133,551
2020-08-14T02:38:53,42.805,6.029,CST-1368DR,5970,8359,15102,0.134,551
2020-08-14T02:41:55,42.805,6.029,CST-1368DR,5970,8360,15105,0.133,551
2020-08-14T02:44:56,42.805,6.029,CST-1368DR,5969,8361,15108,0.132,551
2020-08-14T02:47:58,42.805,6.029,CST-1368DR,5969,8361,15108,0.132,551
2020-08-14T02:51:00,42.805,6.029,CST-1368DR,5969,8361,15108,0.132,551
2020-08-14T02:54:01,42.805,6.029,CST-1368DR,5969,8361,15108,0.132,551
2020-08-14T02:57:03,42.805,6.029,CST-1368DR,5969,8360,15107,0.133,551
2020-08-14T03:00:05,42.805,6.029,CST-1368DR,5969,8360,15107,0.133,551
2020-08-14T03:03:06,42.805,6.029,CST-1368DR,5969,8361,15108,0.132,551
2020-08-14T03:06:08,42.805,6.029,CST-1368DR,5969,8360,15107,0.133,551
2020-08-14T03:09:10,42.805,6.029,CST-1368DR,5970,8360,15104,0.133,551
2020-08-14T03:12:12,42.805,6.029,CST-1368DR,5969,8359,15104,0.133,551
2020-08-14T03:15:13,42.805,6.029,CST-1368DR,5969,8360,15107,0.133,551
2020-08-14T03:18:15,42.805,6.029,CST-1368DR,5970,8360,15104,0.133,551
2020-08-14T03:21:17,42.805,6.029,CST-1368DR,5969,8361,15108,0.132,551
2020-08-14T03:24:18,42.805,6.029,CST-1368DR,5969,8361,15108,0.132,551
2020-08-14T03:27:20,42.805,6.029,CST-1368DR,5969,8361,15108,0.132,551
2020-08-14T03:30:21,42.805,6.029,CST-1368DR,5970,8361,15106,0.133,551
2020-08-14T03:33:23,42.805,6.029,CST-1368DR,5969,8361,15108,0.132,551
2020-08-14T03:36:25,42.805,6.029,CST-1368DR,5969,8359,15105,0.133,551
2020-08-14T03:39:27,42.805,6.029,CST-1368DR,5969,8360,15107,0.133,551
2020-08-14T03:42:28,42.805,6.029,CST-1368DR,5969,8361,15108,0.132,551
2020-08-14T03:45:30,42.805,6.029,CST-1368DR,5969,8360,15107,0.133,551
2020-08-14T03:48:32,42.805,6.029,CST-1368DR,5969,8360,15106,0.133,550
2020-08-14T03:51:33,42.805,6.029,CST-1368DR,5969,8360,15107,0.133,551
2020-08-14T03:54:35,42.805,6.029,CST-1368DR,5969,8360,15107,0.133,551
2020-08-14T03:57:37,42.805,6.029,CST-1368DR,5969,8360,15106,0.133,551
2020-08-14T04:00:38,42.805,6.029,CST-1368DR,5969,8360,15107,0.133,551
2020-08-14T04:03:40,42.805,6.029,CST-1368DR,5969,8359,15104,0.133,551
2020-08-14T04:06:42,42.805,6.029,CST-1368DR,5969,8360,15106,0.133,551
2020-08-14T04:09:44,42.805,6.029,CST-1368DR,5969,8359,15105,0.133,551
2020-08-14T04:12:45,42.805,6.029,CST-1368DR,5969,8360,15107,0.133,551
2020-08-14T04:15:47,42.805,6.029,CST-1368DR,5969,8359,15105,0.133,551
2020-08-14T04:18:49,42.805,6.029,CST-1368DR,5969,8360,15107,0.133,551
2020-08-14T04:21:50,42.805,6.029,CST-1368DR,5969,8361,15108,0.132,551
2020-08-14T04:24:52,42.805,6.029,CST-1368DR,5969,8360,15107,0.133,551
2020-08-14T04:27:54,42.805,6.029,CST-1368DR,5969,8360,15107,0.133,551
2020-08-14T04:30:55,42.805,6.029,CST-1368DR,5969,8360,15107,0.133,551
2020-08-14T04:33:57,42.805,6.029,CST-1368DR,5969,8360,15107,0.133,551
2020-08-14T04:36:59,42.805,6.029,CST-1368DR,5969,8360,15107,0.133,551
2020-08-14T04:40:00,42.805,6.029,CST-1368DR,5969,8358,15103,0.134,551
2020-08-14T04:43:02,42.805,6.029,CST-1368DR,5969,8360,15107,0.133,551
2020-08-14T04:46:04,42.805,6.029,CST-1368DR,5969,8359,15104,0.133,551
2020-08-14T04:49:05,42.805,6.029,CST-1368DR,5969,8360,15106,0.133,551
2020-08-14T04:52:07,42.805,6.029,CST-1368DR,5969,8359,15105,0.133,551
2020-08-14T04:55:09,42.805,6.029,CST-1368DR,5969,8360,15106,0.133,551
2020-08-14T04:58:10,42.805,6.029,CST-1368DR,5969,8360,15106,0.133,551
2020-08-14T05:01:12,42.805,6.029,CST-1368DR,5969,8359,15105,0.133,551
2020-08-14T05:04:14,42.805,6.029,CST-1368DR,5969,8359,15104,0.133,551
2020-08-14T05:07:16,42.805,6.029,CST-1368DR,5969,8360,15107,0.133,551
2020-08-14T05:10:17,42.805,6.029,CST-1368DR,5969,8360,15106,0.133,551
2020-08-14T05:13:19,42.805,6.029,CST-1368DR,5969,8360,15107,0.133,551
2020-08-14T05:16:21,42.805,6.029,CST-1368DR,5969,8360,15107,0.133,551
2020-08-14T05:19:22,42.805,6.029,CST-1368DR,5969,8360,15107,0.133,551
2020-08-14T05:22:24,42.805,6.029,CST-1368DR,5969,8360,15106,0.133,551
2020-08-14T05:25:26,42.805,6.029,CST-1368DR,5969,8360,15107,0.133,551
2020-08-14T05:28:27,42.805,6.029,CST-1368DR,5969,8360,15106,0.133,551
2020-08-14T05:31:29,42.805,6.029,CST-1368DR,5969,8359,15105,0.133,551
2020-08-14T05:34:31,42.805,6.029,CST-1368DR,5969,8360,15106,0.133,551
2020-08-14T05:37:32,42.805,6.029,CST-1368DR,5969,8360,15106,0.133,551
2020-08-14T05:40:34,42.805,6.029,CST-1368DR,5969,8360,15106,0.133,551
2020-08-14T05:43:36,42.805,6.029,CST-1368DR,5969,8358,15104,0.133,551
2020-08-14T05:46:37,42.805,6.029,CST-1368DR,5969,8360,15106,0.133,550
2020-08-14T05:49:39,42.805,6.029,CST-1368DR,5969,8360,15107,0.133,551
2020-08-14T05:52:41,42.805,6.029,CST-1368DR,5969,8360,15107,0.133,551
2020-08-14T05:55:43,42.805,6.029,CST-1368DR,5969,8360,15107,0.133,551
2020-08-14T05:58:44,42.805,6.029,CST-1368DR,5969,8359,15105,0.133,551
2020-08-14T06:01:46,42.805,6.029,CST-1368DR,5969,8360,15106,0.133,551
2020-08-14T06:04:48,42.805,6.029,CST-1368DR,5969,8359,15105,0.133,551
2020-08-14T06:07:50,42.805,6.029,CST-1368DR,5969,8359,15105,0.133,551
2020-08-14T06:10:51,42.805,6.029,CST-1368DR,5969,8360,15106,0.133,551
2020-08-14T06:13:53,42.805,6.029,CST-1368DR,5969,8360,15107,0.133,551
2020-08-14T06:16:55,42.805,6.029,CST-1368DR,5969,8360,15106,0.133,550
2020-08-14T06:19:56,42.805,6.029,CST-1368DR,5969,8360,15106,0.133,551
2020-08-14T06:22:58,42.805,6.029,CST-1368DR,5969,8358,15103,0.134,551
2020-08-14T06:26:00,42.805,6.029,CST-1368DR,5969,8360,15106,0.133,551
2020-08-14T06:29:01,42.805,6.029,CST-1368DR,5969,8360,15107,0.133,551
2020-08-14T06:32:03,42.805,6.029,CST-1368DR,5969,8360,15106,0.133,551
2020-08-14T06:35:05,42.805,6.029,CST-1368DR,5969,8360,15106,0.133,551
2020-08-14T06:38:06,42.805,6.029,CST-1368DR,5969,8360,15106,0.133,551
2020-08-14T06:41:08,42.805,6.029,CST-1368DR,5969,8359,15105,0.133,551
2020-08-14T06:44:10,42.805,6.029,CST-1368DR,5969,8359,15105,0.133,551
2020-08-14T06:47:11,42.805,6.029,CST-1368DR,5969,8360,15106,0.133,551
2020-08-14T06:50:13,42.805,6.029,CST-1368DR,5969,8359,15104,0.133,551
2020-08-14T06:53:15,42.805,6.029,CST-1368DR,5969,8359,15104,0.133,551
2020-08-14T06:56:17,42.805,6.029,CST-1368DR,5969,8360,15106,0.133,551
2020-08-14T06:59:18,42.805,6.029,CST-1368DR,5969,8359,15104,0.133,551
2020-08-14T07:02:20,42.805,6.029,CST-1368DR,5969,8360,15106,0.133,551
2020-08-14T07:05:22,42.805,6.029,CST-1368DR,5969,8359,15104,0.133,551
2020-08-14T07:08:23,42.805,6.029,CST-1368DR,5969,8359,15104,0.133,551
2020-08-14T07:11:25,42.805,6.029,CST-1368DR,5969,8359,15105,0.133,551
2020-08-14T07:14:27,42.805,6.029,CST-1368DR,5969,8359,15105,0.133,551
2020-08-14T07:17:29,42.805,6.029,CST-1368DR,5969,8360,15106,0.133,551
2020-08-14T07:20:30,42.805,6.029,CST-1368DR,5969,8359,15105,0.133,551
2020-08-14T07:23:32,42.805,6.029,CST-1368DR,5969,8358,15103,0.134,551
2020-08-14T07:26:34,42.805,6.029,CST-1368DR,5969,8359,15104,0.133,551
2020-08-14T07:29:35,42.805,6.029,CST-1368DR,5969,8360,15107,0.133,551
2020-08-14T07:32:37,42.805,6.029,CST-1368DR,5969,8359,15105,0.133,551
2020-08-14T07:35:39,42.805,6.029,CST-1368DR,5969,8360,15106,0.133,551
2020-08-14T07:38:41,42.805,6.029,CST-1368DR,5969,8360,15106,0.133,551
2020-08-14T07:41:42,42.805,6.029,CST-1368DR,5969,8360,15106,0.133,551
2020-08-14T07:44:44,42.805,6.029,CST-1368DR,5969,8359,15104,0.133,551
2020-08-14T07:47:46,42.805,6.029,CST-1368DR,5969,8358,15103,0.134,551
2020-08-14T07:50:47,42.805,6.029,CST-1368DR,5969,8359,15104,0.133,551
2020-08-14T07:53:49,42.805,6.029,CST-1368DR,5969,8358,15104,0.133,551
2020-08-14T07:56:51,42.805,6.029,CST-1368DR,5969,8359,15104,0.133,551
2020-08-14T07:59:52,42.805,6.029,CST-1368DR,5969,8358,15103,0.134,551
2020-08-14T08:02:54,42.805,6.029,CST-1368DR,5969,8359,15105,0.133,551
2020-08-14T08:05:56,42.805,6.029,CST-1368DR,5969,8359,15105,0.133,551
2020-08-14T08:08:57,42.805,6.029,CST-1368DR,5969,8358,15103,0.134,551
2020-08-14T08:11:59,42.805,6.029,CST-1368DR,5969,8357,15102,0.134,551
2020-08-14T08:15:01,42.805,6.029,CST-1368DR,5969,8359,15104,0.133,551
2020-08-14T08:18:03,42.805,6.029,CST-1368DR,5969,8359,15105,0.133,551
2020-08-14T08:21:04,42.805,6.029,CST-1368DR,5969,8359,15105,0.133,551
2020-08-14T08:24:06,42.805,6.029,CST-1368DR,5969,8358,15104,0.133,550
2020-08-14T08:27:08,42.805,6.029,CST-1368DR,5969,8360,15106,0.133,551
2020-08-14T08:30:09,42.805,6.029,CST-1368DR,5969,8358,15104,0.133,551
2020-08-14T08:33:11,42.805,6.029,CST-1368DR,5969,8358,15104,0.133,551
2020-08-14T08:36:13,42.805,6.029,CST-1368DR,5969,8359,15104,0.133,551
2020-08-14T08:39:15,42.805,6.029,CST-1368DR,5969,8359,15104,0.133,551
2020-08-14T08:42:17,42.805,6.029,CST-1368DR,5969,8359,15104,0.133,551
2020-08-14T08:45:18,42.805,6.029,CST-1368DR,5969,8359,15104,0.133,551
2020-08-14T08:48:20,42.805,6.029,CST-1368DR,5969,8360,15106,0.133,551
2020-08-14T08:51:22,42.805,6.029,CST-1368DR,5969,8358,15104,0.133,551
2020-08-14T08:54:24,42.805,6.029,CST-1368DR,5969,8358,15104,0.133,551
2020-08-14T08:57:25,42.805,6.029,CST-1368DR,5969,8358,15104,0.133,551
2020-08-14T09:00:27,42.805,6.029,CST-1368DR,5969,8359,15104,0.133,551
2020-08-14T09:03:29,42.805,6.029,CST-1368DR,5969,8358,15104,0.133,551
2020-08-14T09:06:30,42.805,6.029,CST-1368DR,5968,8358,15105,0.133,551
2020-08-14T09:09:32,42.805,6.029,CST-1368DR,5969,8358,15103,0.134,551
2020-08-14T09:12:34,42.805,6.029,CST-1368DR,5969,8359,15104,0.133,551
2020-08-14T09:15:35,42.805,6.029,CST-1368DR,5969,8358,15104,0.133,551
2020-08-14T09:18:37,42.805,6.029,CST-1368DR,5969,8358,15104,0.133,551
2020-08-14T09:21:39,42.805,6.029,CST-1368DR,5969,8359,15104,0.133,551
2020-08-14T09:24:40,42.805,6.029,CST-1368DR,5969,8359,15105,0.133,551
2020-08-14T09:27:42,42.805,6.029,CST-1368DR,5969,8359,15104,0.133,551
2020-08-14T09:30:44,42.805,6.029,CST-1368DR,5969,8360,15106,0.133,551
2020-08-14T09:33:45,42.805,6.029,CST-1368DR,5969,8359,15104,0.133,551
2020-08-14T09:36:47,42.805,6.029,CST-1368DR,5968,8358,15105,0.133,551
2020-08-14T09:39:49,42.805,6.029,CST-1368DR,5969,8358,15103,0.134,551
2020-08-14T09:42:50,42.805,6.029,CST-1368DR,5969,8359,15104,0.133,551
2020-08-14T09:45:52,42.805,6.029,CST-1368DR,5969,8359,15104,0.133,551
2020-08-14T09:48:54,42.805,6.029,CST-1368DR,5969,8359,15104,0.133,551
2020-08-14T09:51:55,42.805,6.029,CST-1368DR,5968,8358,15105,0.133,551
2020-08-14T09:54:57,42.805,6.029,CST-1368DR,5968,8357,15104,0.133,551
2020-08-14T09:57:59,42.805,6.029,CST-1368DR,5968,8358,15106,0.133,551
2020-08-14T10:01:01,42.805,6.029,CST-1368DR,5969,8358,15104,0.133,551
2020-08-14T10:04:02,42.805,6.029,CST-1368DR,5969,8359,15105,0.133,551
2020-08-14T10:07:04,42.805,6.029,CST-1368DR,5968,8359,15106,0.133,551
2020-08-14T10:10:06,42.805,6.029,CST-1368DR,5968,8357,15104,0.133,551
2020-08-14T10:13:07,42.805,6.029,CST-1368DR,5968,8359,15107,0.133,551
2020-08-14T10:16:09,42.805,6.029,CST-1368DR,5969,8359,15104,0.133,551
2020-08-14T10:19:11,42.805,6.029,CST-1368DR,5968,8359,15107,0.133,551
2020-08-14T10:22:12,42.805,6.029,CST-1368DR,5969,8359,15104,0.133,551
2020-08-14T10:25:14,42.805,6.029,CST-1368DR,5968,8359,15106,0.133,551
2020-08-14T10:28:16,42.805,6.029,CST-1368DR,5968,8359,15106,0.133,551
2020-08-14T10:31:18,42.805,6.029,CST-1368DR,5968,8358,15105,0.133,551
2020-08-14T10:34:19,42.805,6.029,CST-1368DR,5968,8358,15105,0.133,551
2020-08-14T10:37:21,42.805,6.029,CST-1368DR,5968,8358,15106,0.133,551
2020-08-14T10:40:23,42.805,6.029,CST-1368DR,5968,8358,15106,0.133,551
2020-08-14T10:43:24,42.805,6.029,CST-1368DR,5968,8358,15105,0.133,551
2020-08-14T10:46:26,42.805,6.029,CST-1368DR,5968,8358,15105,0.133,551
2020-08-14T10:49:28,42.805,6.029,CST-1368DR,5968,8357,15104,0.133,551
2020-08-14T10:52:30,42.805,6.029,CST-1368DR,5968,8358,15105,0.133,551
2020-08-14T10:55:31,42.805,6.029,CST-1368DR,5968,8358,15105,0.133,551
2020-08-14T10:58:33,42.805,6.029,CST-1368DR,5968,8358,15106,0.133,551
2020-08-14T11:01:35,42.805,6.029,CST-1368DR,5968,8358,15105,0.133,551
2020-08-14T11:04:36,42.805,6.029,CST-1368DR,5968,8358,15105,0.133,551
2020-08-14T11:07:38,42.805,6.029,CST-1368DR,5968,8358,15105,0.133,551
2020-08-14T11:10:40,42.805,6.029,CST-1368DR,5968,8358,15105,0.133,550
2020-08-14T11:13:41,42.805,6.029,CST-1368DR,5968,8358,15105,0.133,551
2020-08-14T11:16:43,42.805,6.029,CST-1368DR,5968,8358,15105,0.133,551
2020-08-14T11:19:45,42.805,6.029,CST-1368DR,5968,8356,15102,0.134,551
2020-08-14T11:22:46,42.805,6.029,CST-1368DR,5968,8357,15104,0.133,551
2020-08-14T11:25:48,42.805,6.029,CST-1368DR,5968,8358,15105,0.133,551
2020-08-14T11:28:50,42.805,6.029,CST-1368DR,5968,8358,15105,0.133,551
2020-08-14T11:31:51,42.805,6.029,CST-1368DR,5968,8358,15105,0.133,551
2020-08-14T11:34:53,42.805,6.029,CST-1368DR,5968,8356,15102,0.134,551
2020-08-14T11:37:55,42.805,6.029,CST-1368DR,5968,8358,15106,0.133,551
2020-08-14T11:40:56,42.805,6.029,CST-1368DR,5968,8358,15105,0.133,551
2020-08-14T11:43:58,42.805,6.029,CST-1368DR,5968,8358,15105,0.133,551
2020-08-14T11:47:00,42.805,6.029,CST-1368DR,5968,8358,15105,0.133,551
2020-08-14T11:50:02,42.805,6.029,CST-1368DR,5968,8358,15105,0.133,551
2020-08-14T11:53:03,42.805,6.029,CST-1368DR,5968,8357,15104,0.133,551
2020-08-14T11:56:05,42.805,6.029,CST-1368DR,5968,8358,15105,0.133,551
2020-08-14T11:59:07,42.805,6.029,CST-1368DR,5968,8358,15105,0.133,551
2020-08-14T12:02:08,42.805,6.029,CST-1368DR,5968,8357,15103,0.134,551
2020-08-14T12:05:10,42.805,6.029,CST-1368DR,5968,8358,15105,0.133,551
2020-08-14T12:08:12,42.805,6.029,CST-1368DR,5968,8357,15104,0.133,551
2020-08-14T12:11:13,42.805,6.029,CST-1368DR,5968,8358,15105,0.133,551
2020-08-14T12:14:15,42.805,6.029,CST-1368DR,5968,8357,15104,0.133,551
2020-08-14T12:17:17,42.805,6.029,CST-1368DR,5968,8357,15104,0.133,551
2020-08-14T12:20:18,42.805,6.029,CST-1368DR,5968,8358,15105,0.133,551
2020-08-14T12:23:20,42.805,6.029,CST-1368DR,5968,8358,15106,0.133,551
2020-08-14T12:26:22,42.805,6.029,CST-1368DR,5968,8358,15105,0.133,551
2020-08-14T12:29:24,42.805,6.029,CST-1368DR,5968,8358,15105,0.133,551
2020-08-14T12:32:25,42.805,6.029,CST-1368DR,5968,8358,15105,0.133,551
2020-08-14T12:35:27,42.805,6.029,CST-1368DR,5968,8358,15106,0.133,551
2020-08-14T12:38:29,42.805,6.029,CST-1368DR,5968,8358,15105,0.133,551
2020-08-14T12:41:30,42.805,6.029,CST-1368DR,5968,8356,15102,0.134,551
2020-08-14T12:44:32,42.805,6.029,CST-1368DR,5968,8357,15104,0.133,551
2020-08-14T12:47:34,42.805,6.029,CST-1368DR,5968,8358,15106,0.133,551
2020-08-14T12:50:35,42.805,6.029,CST-1368DR,5968,8357,15103,0.134,551
2020-08-14T12:53:37,42.805,6.029,CST-1368DR,5968,8358,15105,0.133,550
2020-08-14T12:56:39,42.805,6.029,CST-1368DR,5968,8358,15106,0.133,551
2020-08-14T12:59:40,42.805,6.029,CST-1368DR,5968,8358,15105,0.133,551
2020-08-14T13:02:42,42.805,6.029,CST-1368DR,5968,8358,15105,0.133,551
2020-08-14T13:05:44,42.805,6.029,CST-1368DR,5968,8357,15104,0.133,551
2020-08-14T13:08:45,42.805,6.029,CST-1368DR,5968,8357,15103,0.134,551
2020-08-14T13:11:47,42.805,6.029,CST-1368DR,5968,8358,15105,0.133,551
2020-08-14T13:14:49,42.805,6.029,CST-1368DR,5968,8357,15104,0.133,551
2020-08-14T13:17:51,42.805,6.029,CST-1368DR,5968,8357,15103,0.134,551
2020-08-14T13:20:52,42.805,6.029,CST-1368DR,5968,8358,15105,0.133,551
2020-08-14T13:23:54,42.805,6.029,CST-1368DR,5968,8358,15105,0.133,551
2020-08-14T13:26:56,42.805,6.029,CST-1368DR,5968,8358,15105,0.133,551
2020-08-14T13:29:57,42.805,6.029,CST-1368DR,5968,8358,15106,0.133,551
2020-08-14T13:32:59,42.805,6.029,CST-1368DR,5968,8358,15105,0.133,551
2020-08-14T13:36:01,42.805,6.029,CST-1368DR,5968,8358,15105,0.133,551
2020-08-14T13:39:02,42.805,6.029,CST-1368DR,5968,8358,15105,0.133,551
2020-08-14T13:42:04,42.805,6.029,CST-1368DR,5968,8358,15105,0.133,550
2020-08-14T13:45:06,42.805,6.029,CST-1368DR,5968,8357,15104,0.133,551
2020-08-14T13:48:07,42.805,6.029,CST-1368DR,5968,8358,15106,0.133,551
2020-08-14T13:51:09,42.805,6.029,CST-1368DR,5968,8358,15105,0.133,551
2020-08-14T13:54:11,42.805,6.029,CST-1368DR,5968,8358,15105,0.133,551
2020-08-14T13:57:12,42.805,6.029,CST-1368DR,5968,8357,15104,0.133,550
2020-08-14T14:00:14,42.805,6.029,CST-1368DR,5968,8357,15104,0.133,551
2020-08-14T14:03:16,42.805,6.029,CST-1368DR,5968,8358,15105,0.133,551
2020-08-14T14:06:18,42.805,6.029,CST-1368DR,5968,8358,15105,0.133,551
2020-08-14T14:09:19,42.805,6.029,CST-1368DR,5968,8358,15105,0.133,551
2020-08-14T14:12:21,42.805,6.029,CST-1368DR,5968,8358,15105,0.133,551
2020-08-14T14:15:23,42.805,6.029,CST-1368DR,5968,8358,15105,0.133,551
2020-08-14T14:18:24,42.805,6.029,CST-1368DR,5968,8358,15105,0.133,551
2020-08-14T14:21:26,42.805,6.029,CST-1368DR,5968,8359,15106,0.133,551
2020-08-14T14:24:28,42.805,6.029,CST-1368DR,5968,8357,15104,0.133,551
2020-08-14T14:27:29,42.805,6.029,CST-1368DR,5968,8357,15104,0.133,551
2020-08-14T14:30:31,42.805,6.029,CST-1368DR,5968,8357,15103,0.134,551
2020-08-14T14:33:33,42.805,6.029,CST-1368DR,5968,8358,15105,0.133,551
2020-08-14T14:36:34,42.805,6.029,CST-1368DR,5968,8358,15105,0.133,550
2020-08-14T14:39:36,42.805,6.029,CST-1368DR,5968,8357,15104,0.133,551
2020-08-14T14:42:38,42.805,6.029,CST-1368DR,5968,8357,15104,0.133,551
2020-08-14T14:45:39,42.805,6.029,CST-1368DR,5968,8357,15104,0.133,551
2020-08-14T14:48:41,42.805,6.029,CST-1368DR,5968,8358,15105,0.133,551
2020-08-14T14:51:43,42.805,6.029,CST-1368DR,5968,8358,15105,0.133,550
2020-08-14T14:54:45,42.805,6.029,CST-1368DR,5968,8358,15105,0.133,551
2020-08-14T14:57:46,42.805,6.029,CST-1368DR,5968,8357,15104,0.133,551
2020-08-14T15:00:48,42.805,6.029,CST-1368DR,5968,8358,15105,0.133,551
2020-08-14T15:03:50,42.805,6.029,CST-1368DR,5968,8358,15105,0.133,551
2020-08-14T15:06:51,42.805,6.029,CST-1368DR,5968,8358,15105,0.133,551
2020-08-14T15:09:53,42.805,6.029,CST-1368DR,5968,8357,15104,0.133,551
2020-08-14T15:12:55,42.805,6.029,CST-1368DR,5968,8357,15104,0.133,551
2020-08-14T15:15:56,42.805,6.029,CST-1368DR,5968,8357,15104,0.133,551
2020-08-14T15:18:58,42.805,6.029,CST-1368DR,5968,8357,15103,0.134,551
2020-08-14T15:22:00,42.805,6.029,CST-1368DR,5968,8357,15104,0.133,551
2020-08-14T15:25:01,42.805,6.029,CST-1368DR,5968,8358,15105,0.133,551
2020-08-14T15:28:03,42.805,6.029,CST-1368DR,5968,8357,15104,0.133,551
2020-08-14T15:31:05,42.805,6.029,CST-1368DR,5968,8357,15104,0.133,551
2020-08-14T15:34:06,42.805,6.029,CST-1368DR,5968,8357,15104,0.133,551
2020-08-14T15:37:08,42.805,6.029,CST-1368DR,5968,8357,15104,0.133,551
2020-08-14T15:40:10,42.805,6.029,CST-1368DR,5968,8357,15104,0.133,551
2020-08-14T15:43:11,42.805,6.029,CST-1368DR,5968,8357,15104,0.133,551
2020-08-14T15:46:13,42.805,6.029,CST-1368DR,5968,8357,15104,0.133,551
2020-08-14T15:49:15,42.805,6.029,CST-1368DR,5968,8355,15100,0.134,551
2020-08-14T15:52:17,42.805,6.029,CST-1368DR,5968,8357,15103,0.134,551
2020-08-14T15:55:19,42.805,6.029,CST-1368DR,5968,8356,15102,0.134,551
2020-08-14T15:58:20,42.805,6.029,CST-1368DR,5968,8357,15104,0.133,551
2020-08-14T16:01:22,42.805,6.029,CST-1368DR,5968,8357,15104,0.133,551
2020-08-14T16:04:24,42.805,6.029,CST-1368DR,5968,8357,15104,0.133,551
2020-08-14T16:07:26,42.805,6.029,CST-1368DR,5968,8357,15103,0.134,551
2020-08-14T16:10:27,42.805,6.029,CST-1368DR,5968,8356,15102,0.134,551
2020-08-14T16:13:29,42.805,6.029,CST-1368DR,5968,8357,15104,0.133,551
2020-08-14T16:16:31,42.805,6.029,CST-1368DR,5968,8357,15103,0.134,551
2020-08-14T16:19:32,42.805,6.029,CST-1368DR,5968,8357,15103,0.134,551
2020-08-14T16:22:34,42.805,6.029,CST-1368DR,5968,8356,15102,0.134,551
2020-08-14T16:25:36,42.805,6.029,CST-1368DR,5968,8357,15103,0.134,551
2020-08-14T16:28:37,42.805,6.029,CST-1368DR,5968,8356,15102,0.134,551
2020-08-14T16:31:39,42.805,6.029,CST-1368DR,5968,8357,15104,0.133,551
2020-08-14T16:34:41,42.805,6.029,CST-1368DR,5968,8357,15104,0.133,551
2020-08-14T16:37:42,42.805,6.029,CST-1368DR,5968,8357,15103,0.134,551
2020-08-14T16:40:44,42.805,6.029,CST-1368DR,5968,8356,15102,0.134,551
2020-08-14T16:43:46,42.805,6.029,CST-1368DR,5968,8357,15104,0.133,551
2020-08-14T16:46:47,42.805,6.029,CST-1368DR,5968,8357,15103,0.134,551
2020-08-14T16:49:49,42.805,6.029,CST-1368DR,5968,8357,15103,0.134,550
2020-08-14T16:52:51,42.805,6.029,CST-1368DR,5968,8357,15103,0.134,551